Location: McDonald Observatory
(30.6717°N, 104.0221°W)
Time: 18:08:18
(UTC-06:00)

Daily predictions for brighter satellites

Satellite Brightness Start Highest point End
(mag) Time Altitude Azimuth Time Altitude Azimuth Time Altitude Azimuth
Meteor 1-14 Rocket 4.3 18:19:22 10° N 18:24:51 53° E 18:30:14 10° SSE
Cosmos 1908 Rocket 3.9 18:23:18 10° N 18:27:23 40° E 18:31:26 10° SSE
Cosmos 2297 4.0 18:22:45 10° S 18:28:13 49° ESE 18:33:42 10° NNE
Cosmos 1354 Rocket 4.3 18:23:25 10° S 18:28:28 48° ESE 18:33:30 10° NNE
Cosmos 1733 Rocket 3.5 18:24:12 10° NNW 18:28:37 69° W 18:33:01 10° S
SKYMED 2 4.2 18:25:09 10° NNE 18:29:10 36° E 18:33:09 10° SSE
Cosmos 1833 Rocket 3.9 18:25:57 10° NNE 18:30:01 20° ENE 18:34:02 10° ESE
ALOS 3.7 18:27:47 10° ESE 18:30:47 17° ENE 18:33:46 10° NNE
Cosmos 2278 Rocket 3.0 18:27:15 10° SW 18:32:47 54° WNW 18:38:21 10° N
Cosmos 2233 Rocket 4.3 18:27:40 10° S 18:33:56 76° W 18:40:11 10° N
ERBS 2.5 18:32:09 10° NNW 18:35:28 51° NE 18:38:48 10° SE
AQUARIUS 4.2 18:32:47 10° SSE 18:37:16 88° ENE 18:41:46 10° NNW
CORIOLIS 4.1 18:32:14 10° SSE 18:37:39 74° ENE 18:43:05 10° N
SMAP 3.1 18:34:08 10° SSE 18:38:46 87° WSW 18:43:26 10° NNW
CZ-4 R/B 1.2 18:37:45 10° SSE 18:41:38 74° ENE 18:45:28 10° N
Sich 1 Rocket 3.7 18:40:12 10° N 18:44:33 54° E 18:48:56 10° SSE
Meteor 1-28 Rocket 4.1 18:42:45 10° N 18:46:21 50° WNW 18:49:56 10° SSW
Cosmos 1441 Rocket 4.3 18:43:22 10° SSE 18:46:39 25° E 18:49:21 13° NE
Cosmos 1606 2.6 18:42:53 10° S 18:46:40 80° E 18:50:26 10° N
Okean 1-7 3.0 18:44:42 10° S 18:48:59 63° E 18:53:21 10° NNE
Cosmos 1484 Rocket 3.6 18:45:19 10° S 18:49:02 54° W 18:52:51 10° NNW
MOS 1 4.5 18:47:40 10° SE 18:53:07 49° ENE 18:58:35 10° N
BREEZE-M DEB (TANK) 4.5 18:47:35 10° NW 18:57:25 44° WSW 19:00:47 10° SSE
EO 1 Del DPAF 3.2 18:56:57 10° NNE 19:00:46 88° WNW 19:04:34 10° SSW
Cosmos 1513 Rocket 4.5 18:56:24 10° S 19:02:39 65° E 19:08:50 10° NNE
CZ-4C R/B 4.0 19:02:42 10° N 19:08:05 21° NE 19:09:18 20° ENE
Thor Agena Rocket 4.2 19:08:07 22° NE 19:10:30 33° E 19:15:05 10° SSE
Meteor 2-6 Rocket 4.1 19:05:27 10° S 19:10:51 88° W 19:16:23 10° N
YAOGAN 1 2.9 19:07:31 10° S 19:11:49 69° W 19:16:08 10° NNW
Cosmos 1782 Rocket 3.4 19:07:36 10° N 19:11:57 80° E 19:16:19 10° S
Cosmos 1782 3.9 19:08:29 10° SSW 19:12:20 45° W 19:16:13 10° N
Cosmos 1763 Rocket 4.5 19:07:55 10° NNW 19:12:54 49° WSW 19:17:47 10° S
METEOR-M 4.1 19:08:55 10° SSE 19:14:15 89° WSW 19:19:36 10° NNW
Cosmos 1891 Rocket 4.4 19:09:39 10° S 19:15:52 83° E 19:21:59 10° N
COSMO-SKYMED 1 3.3 19:12:59 10° N 19:17:13 54° WNW 19:21:26 10° SSW
Cosmos 1602 4.0 19:13:57 10° N 19:17:37 43° E 19:21:17 10° SSE
ERS-2 2.4 19:13:58 10° S 19:17:37 70° WSW 19:21:18 10° NNW
Cosmos 2082 Rocket 2.2 19:12:58 10° N 19:18:31 53° ENE 19:24:00 10° SE
Cosmos 405 Rocket 2.7 19:15:56 10° S 19:19:45 82° W 19:23:02 13° N
SL-27 R/B 3.0 19:19:57 10° NNW 19:23:14 55° WSW 19:26:31 10° S
ISS -1.3 19:21:24 10° SSE 19:21:54 12° SSE 19:21:54 12° SSE
GPS 2-05 Rocket1 3.1 19:25:37 10° W 19:28:41 50° NNW 19:28:41 50° NNW
OAO 3 Rocket 3.2 19:25:46 10° WSW 19:30:43 84° NNW 19:32:07 47° ENE
Tiangong 1 2.3 19:31:36 10° WSW 19:33:14 33° WSW 19:33:14 33° WSW
Cosmos 44 Rocket 4.4 19:31:00 10° N 19:33:54 28° NNE 19:33:54 28° NNE
Cosmos 968 Rocket 3.3 19:30:27 10° SSW 19:35:34 86° ESE 19:38:30 27° NNE
Cosmos 2034 Rocket 4.1 19:30:48 10° S 19:37:09 77° W 19:43:32 10° N
BREEZE-M R/B 3.3 19:35:32 10° NW 19:38:43 53° NE 19:38:43 53° NE
Nadezhda 4 Rocket 3.9 19:33:09 10° N 19:39:09 57° E 19:45:08 10° SSE
Cosmos 540 Rocket 3.5 19:34:06 10° NNW 19:39:16 81° WSW 19:44:24 10° S
Meteor 1-27 Rocket 3.9 19:34:50 10° SSW 19:40:42 78° W 19:46:39 10° N
OAO 3 Copernicus 4.2 19:39:35 10° WNW 19:44:41 74° NNE 19:45:14 66° ENE
Celestis-02/Orion 38 4.5 19:42:54 35° NNE 19:45:11 88° WNW 19:50:25 10° SSW
Cosmos 292 Rocket 3.6 19:40:46 10° N 19:45:13 67° NE 19:45:13 67° NE
USA 234 4.2 19:42:57 17° NNE 19:47:33 41° NW 19:53:35 10° WSW
Okean 2 Rocket 4.0 19:49:49 10° NNW 19:54:11 50° W 19:58:32 10° SSW
FENGYUN 3A 4.1 19:49:15 10° S 19:54:34 62° W 19:59:56 10° NNW
Meteor 2-20 4.4 19:50:33 10° N 19:56:37 79° W 20:02:39 10° S
Delta 168 4.4 19:53:07 10° WSW 19:58:22 51° S 19:59:45 45° SE
Cosmos 44 4.3 19:58:42 10° NNW 20:01:26 35° NNW 20:01:26 35° NNW
BREEZE-M DEB (TANK) 4.1 20:03:43 10° WNW 20:07:19 26° SW 20:07:23 26° SW
ALOS 3.8 20:03:37 10° SSW 20:07:52 35° W 20:12:09 10° NNW
Cosmos 2369 Rocket 2.9 20:03:32 10° S 20:07:09 40° S 20:07:09 40° S
Cosmos 1833 Rocket 3.7 20:08:46 10° NW 20:14:03 44° WSW 20:19:22 10° S
IUS-9 SRM-1 4.1 20:02:30 10° W 20:21:30 51° SSW 20:22:31 46° S
USA 229 DEB 4.1 20:27:51 10° SW 20:34:24 54° WNW 20:35:11 52° NNW
USA 229 4.1 20:27:56 10° SW 20:34:30 55° WNW 20:35:14 52° NW
CZ-4C R/B 3.7 20:49:46 10° NNW 20:54:35 45° NW 20:54:35 45° NW
